DELTA 1 DEB, 7063

Orbit data source: Space-Track

DELTA 1 DEB, 7063 is space debris in SSO originally from a launch on Tue, 06 Nov 1973 UTC launched from the Air Force Western Test Range (AFWTR). Debris objects in space refer to the collection of defunct objects orbiting the Earth. Examples of debris include non-operational satellites, rocket bodies, and fragments generated from explosions, collisions, or faulty payload assembly.

Loading next visibility...
Identifier
7063, 1973-086BF
Orbit
SSO
Country
Flag of USUS
Related business
Manufacturer
Unknown
Mission
Spacecraft
Bus & Motor
Unknown
Mass
Unknown
Launch date (UTC)
1973-11-06 (52 years ago)
Launch vehicle
Unknown
Launch site
Air Force Western Test Range (AFWTR)
Object type
Payload
Rocket body
Debris
Shape & HBR
Unknown shape, 0.2 m
Radar Cross Section
Medium (>0.1 m² and <1 m²)

Expand to show TLE details & history
Last TLE update: 7 hours ago

TLE from 7 hours ago
0 DELTA 1 DEB
1 07063U 73086BF  25292.98030398  .00000195  00000-0  68182-3 0  9993
2 07063 102.5032   9.0807 0293708 201.0607 238.2061 13.00208216461152
Epoch: 2025-10-19T23:31Z
TLE epoch observation values (Epoch: 2025-10-19T23:31:38.263Z)
Latitude
71.72404°
Longitude
-54.44266°
Altitude
1,396.345 km
Speed
7.11 km/s
True Right ascension
21h 48m 37s
True Declination
71° 37' 47"
Sunlit
Object was in daylight at epoch
Visualization orbit readout
Latitude
Unknown
Longitude
Unknown
Altitude
Unknown
Speed
Unknown
Apparent Right ascension
Unknown
Apparent Declination
Unknown
Sunlit
N/A
Visualization observer readout
Local Sidereal Time
01:38:18
Azimuth
Unknown
Elevation
Unknown
Doppler factor
Unknown
Orbital elements
Apogee altitude
1,483.102 km
Perigee altitude
1,034.496 km
Semi-major axis
7,636.936 km
Eccentricity
0.02937
Inclination
102.5032°
RAAN
9.0807°
Arg. of periapsis
201.0607°
True anomaly
235.40092°
Mean anomaly
238.2061°
Eccentric anomaly
236.79801°
Mean motion
3.2521 °/min
Orbital period
110.7 mins
BSTAR
0.00068182
Loading maneuver chart data...
Computing Atmospheric mass density...
Loading historical data...
Loading historical data...
Loading historical data...
Loading historical data...
Loading historical data...
Loading historical data...
Loading historical data...

Documentation

Showing up to 5 results
|